Location: Grust
(42.8833°N, 0.0333°W)
Time: 13:55:50
(UTC+00:00)

CZ-4B R/B - Pass Details

Date: 25 October 2020
Orbit: 389 x 462 km, 97.6° (Epoch: 24 November)

Event Time Altitude Azimuth Distance (km) Brightness Sun altitude
Rises 18:26:07 0° 357° (N) 2,408 5.1 -16.1°
Reaches altitude 10° 18:28:33 10° 339° (NNW) 1,519 4.3 -16.5°
Maximum altitude 18:30:54 19° 292° (WNW) 1,071 4.2 -17.0°
Drops below altitude 10° 18:33:12 10° 245° (WSW) 1,480 5.0 -17.4°
Sets 18:35:32 0° 227° (SW) 2,321 5.8 -17.8°
